GW5716 Weather Reports


time (UTC)temp
C
wind
direction
speed
KPH
gust
KPH
rain 1hr
cm
rain 24hr
cm
rain mn
cm
humidity
%
barometer
mb
20260507125028 13 310 0.0 0.0 0.00 0.00 0.00 94 1016.2
20260507124025 13 311 0.0 0.0 0.00 0.00 0.00 94 1016.3
20260507123036 13 310 0.0 0.0 0.00 0.00 0.00 94 1016.2
20260507122022 13 310 0.0 0.0 0.00 0.00 0.00 94 1016.2
20260507121030 13 310 0.0 0.0 0.00 0.00 0.00 94 1016.3
20260507120037 13 310 0.0 0.0 0.00 0.00 0.00 94 1016.4
20260507115027 13 310 0.0 0.0 0.00 0.00 0.00 94 1016.4
20260507114023 14 310 0.0 0.0 0.00 0.00 0.00 95 1016.4
20260507113030 14 310 0.0 0.0 0.00 0.00 0.00 95 1016.5
20260507112036 14 310 0.0 0.0 0.00 0.00 0.00 95 1016.5
20260507111028 14 310 0.0 0.0 0.00 0.00 0.00 95 1016.6
20260507110034 14 310 0.0 0.0 0.00 0.00 0.00 95 1016.5
20260507105020 14 310 0.0 0.0 0.00 0.00 0.00 95 1016.7
20260507104036 14 310 0.0 0.0 0.00 0.00 0.00 95 1016.7
20260507103028 14 310 0.0 0.0 0.00 0.00 0.00 95 1016.7
20260507102036 14 310 0.0 0.0 0.00 0.00 0.00 95 1016.7
20260507101022 14 310 0.0 0.0 0.00 0.00 0.00 95 1016.7
20260507100020 14 310 0.0 0.0 0.00 0.00 0.00 95 1016.7
20260507095029 15 310 0.0 0.0 0.00 0.00 0.00 94 1016.6
20260507094027 15 310 0.0 0.0 0.00 0.00 0.00 95 1016.8
20260507093033 15 310 0.0 0.0 0.00 0.00 0.00 95 1016.9
20260507092021 15 310 0.0 0.0 0.00 0.00 0.00 94 1017.1
20260507091032 15 310 0.0 0.0 0.00 0.00 0.00 94 1017.1
20260507090039 15 310 0.0 0.0 0.00 0.00 0.00 94 1017.1
20260507085024 15 310 0.0 0.0 0.00 0.00 0.00 94 1017.3
20260507084022 15 310 0.0 0.0 0.00 0.00 0.00 94 1017.6
20260507083033 15 310 0.0 0.0 0.00 0.00 0.00 94 1017.6
20260507082021 15 310 0.0 0.0 0.00 0.00 0.00 94 1017.5
20260507081028 15 310 0.0 0.0 0.00 0.00 0.00 94 1017.7
20260507080035 15 310 0.0 0.0 0.00 0.00 0.00 94 1017.7
20260507075026 15 310 0.0 0.0 0.00 0.00 0.00 94 1017.7
20260507072024 16 310 4.8 8.0 0.00 0.00 0.00 93 1017.6
20260507071035 16 310 1.6 6.4 0.00 0.00 0.00 93 1017.6
20260507070034 16 310 1.6 8.0 0.00 0.00 0.00 93 1017.8
20260507063030 16 324 8.0 12.9 0.00 0.00 0.00 93 1018.1
20260507062021 16 328 1.6 9.7 0.00 0.00 0.00 92 1018.0
20260507061028 16 328 0.0 9.7 0.00 0.00 0.00 92 1018.0
20260507060035 16 328 4.8 9.7 0.00 0.00 0.00 92 1017.9
20260507054042 16 328 6.4 16.1 0.00 0.00 0.00 92 1018.0
20260507053020 16 4 6.4 14.5 0.00 0.00 0.00 92 1017.7
20260507052042 16 336 8.0 14.5 0.00 0.00 0.00 91 1017.7
20260507051047 16 339 8.0 12.9 0.00 0.00 0.00 91 1017.7
20260507050037 16 332 8.0 9.7 0.00 0.00 0.00 91 1017.7
20260507045046 16 332 6.4 11.3 0.00 0.00 0.00 91 1017.6
20260507044046 16 331 6.4 11.3 0.00 0.00 0.00 90 1017.6
20260507043024 16 331 6.4 12.9 0.00 0.00 0.00 90 1017.5
20260507042040 16 332 6.4 11.3 0.00 0.00 0.00 89 1017.4
20260507041033 16 333 8.0 12.9 0.00 0.00 0.00 89 1017.4
20260507040024 16 307 8.0 14.5 0.00 0.00 0.00 89 1017.4
20260507035046 16 330 6.4 9.7 0.00 0.00 0.00 89 1017.3
20260507034042 16 312 6.4 12.9 0.00 0.00 0.00 89 1017.2
20260507033024 16 326 4.8 12.9 0.00 0.00 0.00 89 1017.2
20260507032046 16 316 4.8 16.1 0.00 0.00 0.00 89 1017.1
20260507031038 16 340 8.0 17.7 0.00 0.00 0.00 89 1017.0
20260507030049 16 330 4.8 14.5 0.00 0.00 0.00 89 1016.9
20260507024040 16 295 12.9 17.7 0.00 0.00 0.00 88 1016.8
20260507023019 17 317 11.3 19.3 0.00 0.00 0.00 87 1016.8
20260507022041 17 313 9.7 16.1 0.00 0.00 0.00 86 1016.6
20260507020037 17 287 14.5 17.7 0.00 0.00 0.00 89 1016.6
20260507015047 17 4 11.3 20.9 0.00 0.00 0.00 88 1016.6
20260507014046 17 306 14.5 20.9 0.00 0.00 0.00 87 1016.5
20260507013036 17 320 12.9 19.3 0.00 0.00 0.00 87 1016.6
20260507012045 17 291 9.7 24.1 0.00 0.00 0.00 88 1016.4
20260507011020 17 330 14.5 20.9 0.00 0.00 0.00 87 1016.4
20260507005042 17 270 16.1 25.7 0.00 0.00 0.00 87 1016.3
20260507004041 17 299 16.1 24.1 0.00 0.00 0.00 88 1016.3
20260507002058 17 314 16.1 29.0 0.00 0.00 0.00 88 1016.4
20260507001106 18 306 17.7 25.7 0.00 0.00 0.00 87 1016.6
20260507000034 18 307 12.9 25.7 0.00 0.00 0.00 87 1016.5
20260506235045 18 298 20.9 25.7 0.00 0.00 0.00 86 1016.5
20260506234040 18 275 16.1 24.1 0.00 0.00 0.00 86 1016.4
20260506233049 18 275 14.5 20.9 0.00 0.00 0.00 86 1016.4
20260506232027 18 305 14.5 22.5 0.00 0.00 0.00 86 1016.5
20260506231030 18 287 17.7 22.5 0.00 0.00 0.00 85 1016.6
20260506230040 18 293 12.9 19.3 0.00 0.00 0.00 84 1016.6
20260506225043 18 297 14.5 19.3 0.00 0.00 0.00 80 1016.7
20260506224042 18 285 14.5 20.9 0.00 0.00 0.00 79 1016.8
20260506222028 18 251 12.9 19.3 0.00 0.00 0.00 76 1017.1
20260506215021 19 297 9.7 19.3 0.00 0.00 0.00 80 1017.3
20260506214037 19 299 12.9 19.3 0.00 0.00 0.00 80 1017.4
20260506213035 18 280 14.5 19.3 0.00 0.00 0.00 82 1017.6
20260506212020 18 269 12.9 19.3 0.00 0.00 0.00 81 1017.6
20260506211033 18 253 11.3 19.3 0.00 0.00 0.00 82 1017.7
20260506210040 18 266 12.9 19.3 0.00 0.00 0.00 82 1017.8
20260506205026 18 259 14.5 20.9 0.00 0.00 0.00 82 1017.9
20260506203036 18 262 12.9 17.7 0.00 0.00 0.00 81 1018.1
20260506202021 18 272 12.9 19.3 0.00 0.00 0.00 82 1018.1
20260506192038 17 216 12.9 19.3 0.00 0.00 0.00 83 1018.8
20260506190030 17 258 12.9 19.3 0.00 0.00 0.00 84 1018.9
20260506185035 17 231 12.9 19.3 0.00 0.00 0.00 85 1019.1
20260506184031 17 214 14.5 20.9 0.00 0.00 0.00 86 1019.2
20260506183039 16 214 12.9 20.9 0.00 0.00 0.00 88 1019.1
20260506182032 16 185 9.7 14.5 0.00 0.00 0.00 88 1019.2
20260506181020 16 178 9.7 16.1 0.00 0.00 0.00 89 1019.2
20260506180028 16 191 8.0 16.1 0.00 0.00 0.00 89 1019.2
20260506175021 16 191 9.7 17.7 0.00 0.00 0.00 88 1019.1
20260506174038 16 189 11.3 16.1 0.00 0.00 0.00 89 1019.1
20260506173024 16 193 12.9 17.7 0.00 0.00 0.00 88 1019.1
20260506172024 16 196 14.5 0.0 0.00 0.00 0.00 88 1019.0
20260506171018 16 189 12.9 0.0 0.00 0.00 0.00 89 1018.9
20260506170027 16 188 12.9 0.0 0.00 0.00 0.00 88 1018.9
20260506165017 16 185 11.3 0.0 0.00 0.00 0.00 89 1018.9
20260506163031 16 191 9.7 0.0 0.00 0.00 0.00 87 1018.9
20260506162025 16 191 11.3 0.0 0.00 0.00 0.00 87 1019.0
20260506161035 16 185 9.7 0.0 0.00 0.00 0.00 87 1019.1
20260506160018 16 182 8.0 0.0 0.00 0.00 0.00 87 1019.1
20260506155031 16 179 8.0 0.0 0.00 0.00 0.00 87 1019.1
20260506154033 16 185 8.0 0.0 0.00 0.00 0.00 87 1018.9
20260506153023 16 185 6.4 0.0 0.00 0.00 0.00 87 1019.0
20260506152033 16 185 6.4 0.0 0.00 0.00 0.00 87 1019.0
20260506151027 16 185 6.4 0.0 0.00 0.00 0.00 87 1018.9
20260506150017 16 139 3.2 0.0 0.00 0.00 0.00 86 1019.0
20260506145027 16 139 3.2 0.0 0.00 0.00 0.00 85 1018.9
20260506144029 16 137 3.2 0.0 0.00 0.00 0.00 86 1018.8
20260506143023 16 137 4.8 0.0 0.00 0.00 0.00 86 1018.8
20260506142033 16 136 1.6 0.0 0.00 0.00 0.00 88 1018.7
20260506140049 13 136 0.0 0.0 0.00 0.00 0.00 91 1018.7
20260506133029 13 137 0.0 0.0 0.00 0.00 0.00 91 1018.4
20260506132036 13 136 0.0 0.0 0.00 0.00 0.00 91 1018.2
20260506131023 13 136 0.0 0.0 0.00 0.00 0.00 90 1018.1
20260506130020 13 136 0.0 0.0 0.00 0.00 0.00 90 1018.1